• In Austria
  • List of Countries
  • For 7 days
  • Water Temperature
  • Satellite Maps
  • Weather Map
  • News
  • Weather Widgets
  • user-avatar
    Login

    Hourly Weather Canberra

    Today, 14 December, Thursday

    Time Temperature Precipitation Wind Pressure Humidity
    00:00 +22°C° 0 mm 1 mps 705 mmHg 38%
    01:00 +21°C° 0 mm 1 mps 705 mmHg 40%
    02:00 +21°C° 0 mm 1 mps 704 mmHg 41%
    03:00 +21°C° 0 mm 1 mps 704 mmHg 42%
    04:00 +20°C° 0 mm 1 mps 704 mmHg 44%
    05:00 +21°C° 0 mm 2 mps 704 mmHg 41%
    06:00 +24°C° 0 mm 2 mps 705 mmHg 38%
    07:00 +26°C° 0 mm 3 mps 705 mmHg 35%
    08:00 +29°C° 0 mm 5 mps 705 mmHg 32%
    09:00 +32°C° 0 mm 6 mps 705 mmHg 29%
    10:00 +32°C° 0 mm 7 mps 705 mmHg 29%
    11:00 +33°C° 0.1 mm 7 mps 705 mmHg 28%
    12:00 +34°C° 0.1 mm 7 mps 705 mmHg 27%
    13:00 +35°C° 0.1 mm 7 mps 705 mmHg 26%
    14:00 +34°C° 0 mm 7 mps 704 mmHg 27%
    15:00 +34°C° 0 mm 6 mps 704 mmHg 28%
    16:00 +32°C° 0 mm 4 mps 704 mmHg 32%
    17:00 +30°C° 0 mm 3 mps 704 mmHg 38%
    18:00 +28°C° 0 mm 3 mps 705 mmHg 44%
    19:00 +26°C° 0 mm 2 mps 705 mmHg 50%
    20:00 +25°C° 0.2 mm 2 mps 705 mmHg 55%
    21:00 +23°C° 0.2 mm 1 mps 706 mmHg 60%
    22:00 +22°C° 0.2 mm 1 mps 706 mmHg 65%
    23:00 +22°C° 0.1 mm 1 mps 706 mmHg 69%

    Tomorrow, 15 December, Friday

    Time Temperature Precipitation Wind Pressure Humidity
    00:00 +21°C° 0.1 mm 1 mps 706 mmHg 73%
    01:00 +20°C° 0.1 mm 1 mps 706 mmHg 77%
    02:00 +20°C° 0 mm 1 mps 706 mmHg 80%
    03:00 +19°C° 0 mm 1 mps 706 mmHg 83%
    04:00 +18°C° 0 mm 1 mps 706 mmHg 87%
    05:00 +19°C° 0 mm 1 mps 707 mmHg 84%
    06:00 +19°C° 0 mm 2 mps 707 mmHg 82%
    07:00 +19°C° 0 mm 2 mps 707 mmHg 80%
    08:00 +21°C° 0 mm 2 mps 707 mmHg 71%
    09:00 +24°C° 0 mm 2 mps 708 mmHg 63%
    10:00 +26°C° 0 mm 2 mps 708 mmHg 54%
    11:00 +28°C° 0 mm 3 mps 707 mmHg 49%
    12:00 +30°C° 0 mm 3 mps 707 mmHg 43%
    13:00 +31°C° 0 mm 3 mps 707 mmHg 38%
    14:00 +33°C° 0 mm 3 mps 707 mmHg 36%
    15:00 +33°C° 0 mm 4 mps 706 mmHg 34%
    16:00 +33°C° 0 mm 4 mps 706 mmHg 32%
    17:00 +30°C° 0 mm 3 mps 706 mmHg 39%
    18:00 +28°C° 0 mm 2 mps 706 mmHg 45%
    19:00 +26°C° 0 mm 1 mps 706 mmHg 51%
    20:00 +25°C° 0 mm 1 mps 706 mmHg 56%
    21:00 +24°C° 0 mm 1 mps 707 mmHg 61%
    22:00 +22°C° 0 mm 1 mps 707 mmHg 66%
    23:00 +22°C° 0 mm 1 mps 707 mmHg 67%

    Day after tomorrow, 16 December, Saturday

    Time Temperature Precipitation Wind Pressure Humidity
    00:00 +21°C° 0 mm 1 mps 707 mmHg 68%
    01:00 +18°C° 0 mm 0 mps 707 mmHg 69%
    02:00 +20°C° 0 mm 1 mps 707 mmHg 67%
    03:00 +20°C° 0 mm 1 mps 707 mmHg 66%
    04:00 +20°C° 0 mm 1 mps 707 mmHg 64%
    05:00 +22°C° 0 mm 1 mps 707 mmHg 58%
    06:00 +22°C° 0 mm 0 mps 708 mmHg 52%
    07:00 +24°C° 0 mm 0 mps 709 mmHg 47%
    08:00 +28°C° 0 mm 1 mps 709 mmHg 42%
    09:00 +30°C° 0 mm 2 mps 709 mmHg 37%
    10:00 +33°C° 0 mm 3 mps 709 mmHg 32%
    11:00 +33°C° 0 mm 3 mps 709 mmHg 31%
    12:00 +33°C° 0 mm 3 mps 709 mmHg 31%
    13:00 +34°C° 0 mm 3 mps 709 mmHg 30%
    14:00 +34°C° 0 mm 3 mps 708 mmHg 30%
    15:00 +34°C° 0 mm 3 mps 708 mmHg 30%
    16:00 +34°C° 0 mm 3 mps 708 mmHg 30%
    17:00 +31°C° 0 mm 2 mps 708 mmHg 36%
    18:00 +29°C° 0 mm 2 mps 708 mmHg 42%
    19:00 +27°C° 0 mm 1 mps 708 mmHg 49%
    20:00 +25°C° 0 mm 2 mps 708 mmHg 56%
    21:00 +24°C° 0 mm 2 mps 709 mmHg 63%
    22:00 +21°C° 0 mm 2 mps 709 mmHg 71%
    23:00 +21°C° 0 mm 2 mps 709 mmHg 77%

    17 December, Sunday

    Time Temperature Precipitation Wind Pressure Humidity
    00:00 +20°C° 0 mm 2 mps 709 mmHg 83%
    01:00 +19°C° 0 mm 2 mps 709 mmHg 88%
    02:00 +19°C° 0 mm 2 mps 709 mmHg 89%
    03:00 +18°C° 0 mm 2 mps 709 mmHg 90%
    04:00 +18°C° 0 mm 2 mps 709 mmHg 91%
    05:00 +19°C° 0 mm 2 mps 709 mmHg 85%
    06:00 +21°C° 0 mm 2 mps 710 mmHg 79%
    07:00 +23°C° 0 mm 2 mps 710 mmHg 72%
    08:00 +25°C° 0 mm 2 mps 710 mmHg 64%
    09:00 +28°C° 0 mm 2 mps 711 mmHg 56%
    10:00 +30°C° 0 mm 2 mps 711 mmHg 48%
    11:00 +31°C° 0 mm 2 mps 711 mmHg 45%
    12:00 +32°C° 0 mm 2 mps 710 mmHg 42%
    13:00 +34°C° 0 mm 2 mps 710 mmHg 39%
    14:00 +33°C° 0.1 mm 3 mps 710 mmHg 42%
    15:00 +31°C° 0.1 mm 3 mps 709 mmHg 45%
    16:00 +30°C° 0.1 mm 3 mps 709 mmHg 48%
    17:00 +28°C° 0.7 mm 3 mps 709 mmHg 61%
    18:00 +25°C° 0.7 mm 4 mps 709 mmHg 73%
    19:00 +21°C° 0.7 mm 4 mps 709 mmHg 86%
    20:00 +21°C° 0.1 mm 4 mps 709 mmHg 87%
    21:00 +20°C° 0.1 mm 3 mps 710 mmHg 89%
    22:00 +19°C° 0.1 mm 3 mps 710 mmHg 90%
    23:00 +19°C° 0 mm 3 mps 710 mmHg 90%

    18 December, Monday

    Time Temperature Precipitation Wind Pressure Humidity
    00:00 +19°C° 0 mm 3 mps 710 mmHg 90%
    01:00 +19°C° 0 mm 2 mps 709 mmHg 90%
    02:00 +19°C° 0 mm 2 mps 709 mmHg 92%
    03:00 +18°C° 0 mm 2 mps 709 mmHg 94%
    04:00 +19°C° 0 mm 1 mps 708 mmHg 95%
    05:00 +20°C° 0.3 mm 1 mps 709 mmHg 90%
    06:00 +22°C° 0.3 mm 1 mps 709 mmHg 85%
    07:00 +23°C° 0.3 mm 1 mps 709 mmHg 80%
    08:00 +26°C° 0.2 mm 2 mps 709 mmHg 69%
    09:00 +28°C° 0.2 mm 2 mps 709 mmHg 58%
    10:00 +31°C° 0.2 mm 3 mps 709 mmHg 46%
    11:00 +34°C° 0 mm 3 mps 709 mmHg 40%
    12:00 +35°C° 0 mm 4 mps 709 mmHg 35%
    13:00 +37°C° 0 mm 4 mps 708 mmHg 29%
    14:00 +36°C° 0.1 mm 3 mps 708 mmHg 31%
    15:00 +36°C° 0.1 mm 3 mps 707 mmHg 33%
    16:00 +35°C° 0.1 mm 2 mps 707 mmHg 35%
    17:00 +32°C° 0 mm 2 mps 707 mmHg 43%
    18:00 +29°C° 0 mm 2 mps 707 mmHg 51%
    19:00 +27°C° 0 mm 2 mps 707 mmHg 59%
    20:00 +26°C° 0 mm 2 mps 707 mmHg 69%
    21:00 +24°C° 0 mm 2 mps 707 mmHg 78%
    22:00 +23°C° 0 mm 2 mps 707 mmHg 88%
    23:00 +23°C° 0 mm 2 mps 707 mmHg 87%

    19 December, Tuesday

    Time Temperature Precipitation Wind Pressure Humidity
    00:00 +23°C° 0 mm 1 mps 707 mmHg 86%
    01:00 +23°C° 0 mm 1 mps 706 mmHg 85%
    02:00 +22°C° 0 mm 1 mps 706 mmHg 85%
    03:00 +22°C° 0 mm 1 mps 705 mmHg 86%
    04:00 +21°C° 0 mm 1 mps 705 mmHg 86%
    05:00 +23°C° 0 mm 1 mps 705 mmHg 78%
    06:00 +25°C° 0 mm 2 mps 706 mmHg 70%
    07:00 +27°C° 0 mm 2 mps 706 mmHg 62%
    08:00 +30°C° 0 mm 3 mps 706 mmHg 53%
    09:00 +33°C° 0 mm 5 mps 706 mmHg 43%
    10:00 +36°C° 0 mm 6 mps 706 mmHg 34%
    11:00 +38°C° 0 mm 6 mps 705 mmHg 30%
    12:00 +40°C° 0 mm 6 mps 704 mmHg 26%
    13:00 +41°C° 0 mm 7 mps 704 mmHg 21%
    14:00 +41°C° 0 mm 6 mps 703 mmHg 21%
    15:00 +41°C° 0 mm 6 mps 702 mmHg 21%
    16:00 +40°C° 0 mm 5 mps 702 mmHg 21%
    17:00 +38°C° 0 mm 4 mps 702 mmHg 23%
    18:00 +36°C° 0 mm 4 mps 702 mmHg 25%
    19:00 +35°C° 0 mm 3 mps 701 mmHg 27%
    20:00 +34°C° 0 mm 3 mps 702 mmHg 28%
    21:00 +33°C° 0 mm 3 mps 702 mmHg 28%
    22:00 +31°C° 0 mm 3 mps 702 mmHg 29%
    23:00 +30°C° 0 mm 3 mps 701 mmHg 32%
    Show more